Time,TemperatureF,DewpointF,PressureIn,WindDirection,WindDirectionDegrees,WindSpeedMPH,WindSpeedGustMPH,Humidity,HourlyPrecipIn,Conditions,Clouds,dailyrainin,SoftwareType,DateUTC
2013-08-09 00:11:00,63.0,52.0,-100.00,NW,320,2.0,6.0,66,0.00,,,0.00,,2013-08-09 05:11:00,
2013-08-09 00:32:00,62.0,52.0,-100.00,WNW,300,3.0,4.0,69,0.00,,,0.00,,2013-08-09 05:32:00,
2013-08-09 00:52:00,61.0,52.0,-100.00,WNW,295,4.0,5.0,73,0.00,,,0.00,,2013-08-09 05:52:00,
2013-08-09 01:11:00,60.0,54.0,-100.00,WNW,285,4.0,7.0,78,0.00,,,0.00,,2013-08-09 06:11:00,
2013-08-09 01:32:00,60.0,54.0,-100.00,West,265,3.0,4.0,81,0.00,,,0.00,,2013-08-09 06:32:00,
2013-08-09 01:52:00,60.0,54.0,-100.00,NW,310,4.0,5.0,77,0.00,,,0.00,,2013-08-09 06:52:00,
2013-08-09 02:01:00,60.0,54.0,-100.00,NW,310,4.0,5.0,77,0.00,,,0.00,,2013-08-09 07:01:00,
2013-08-09 02:12:00,60.0,54.0,-100.00,NW,305,4.0,5.0,78,0.00,,,0.00,,2013-08-09 07:12:00,
2013-08-09 02:52:00,59.0,54.0,-100.00,WNW,300,4.0,4.0,83,0.00,,,0.00,,2013-08-09 07:52:00,
2013-08-09 03:12:00,58.0,55.0,-100.00,West,260,2.0,3.0,87,0.00,,,0.00,,2013-08-09 08:12:00,
2013-08-09 03:32:00,58.0,54.0,-100.00,WNW,300,3.0,4.0,88,0.00,,,0.00,,2013-08-09 08:32:00,
2013-08-09 04:12:00,58.0,54.0,-100.00,NW,325,4.0,4.0,88,0.00,,,0.00,,2013-08-09 09:12:00,
2013-08-09 04:32:00,57.0,55.0,-100.00,NW,315,2.0,4.0,90,0.00,,,0.00,,2013-08-09 09:32:00,
2013-08-09 05:12:00,57.0,54.0,-100.00,North,0,2.0,6.0,91,0.00,,,0.00,,2013-08-09 10:12:00,
2013-08-09 05:22:00,56.0,54.0,-100.00,NW,320,2.0,4.0,91,0.00,,,0.00,,2013-08-09 10:22:00,
2013-08-09 05:32:00,57.0,54.0,-100.00,NNW,335,2.0,4.0,91,0.00,,,0.00,,2013-08-09 10:32:00,
2013-08-09 05:43:00,57.0,54.0,-100.00,NNW,335,2.0,4.0,91,0.00,,,0.00,,2013-08-09 10:43:00,
2013-08-09 06:11:00,56.0,54.0,-100.00,NW,320,4.0,6.0,92,0.00,,,0.00,,2013-08-09 11:11:00,
2013-08-09 06:22:00,56.0,54.0,-100.00,NW,310,2.0,6.0,92,0.00,,,0.00,,2013-08-09 11:22:00,
2013-08-09 06:33:00,56.0,54.0,-100.00,NW,320,4.0,6.0,92,0.00,,,0.00,,2013-08-09 11:33:00,
2013-08-09 07:12:00,56.0,54.0,-100.00,WNW,285,4.0,7.0,92,0.00,,,0.00,,2013-08-09 12:12:00,
2013-08-09 07:22:00,56.0,54.0,-100.00,NW,305,5.0,6.0,92,0.00,,,0.00,,2013-08-09 12:22:00,
2013-08-09 07:32:00,57.0,55.0,-100.00,NW,310,2.0,7.0,92,0.00,,,0.00,,2013-08-09 12:32:00,
2013-08-09 08:12:00,60.0,54.0,-100.00,NNW,330,5.0,9.0,80,0.00,,,0.00,,2013-08-09 13:12:00,
2013-08-09 08:32:00,60.0,52.0,-100.00,North,0,7.0,16.0,72,0.00,,,0.00,,2013-08-09 13:32:00,
2013-08-09 08:52:00,61.0,50.0,-100.00,North,0,7.0,15.0,66,0.00,,,0.00,,2013-08-09 13:52:00,
2013-08-09 09:11:00,62.0,48.0,-100.00,North,0,10.0,15.0,59,0.00,,,0.00,,2013-08-09 14:11:00,
2013-08-09 09:22:00,62.0,48.0,-100.00,NNW,345,8.0,15.0,59,0.00,,,0.00,,2013-08-09 14:22:00,
2013-08-09 09:43:00,63.0,46.0,-100.00,North,0,11.0,15.0,55,0.00,,,0.00,,2013-08-09 14:43:00,
2013-08-09 09:53:00,63.0,46.0,-100.00,NNW,330,10.0,16.0,55,0.00,,,0.00,,2013-08-09 14:53:00,
2013-08-09 10:11:00,63.0,46.0,-100.00,NW,320,11.0,17.0,52,0.00,,,0.00,,2013-08-09 15:11:00,
2013-08-09 10:22:00,63.0,46.0,-100.00,North,0,11.0,20.0,52,0.00,,,0.00,,2013-08-09 15:22:00,
2013-08-09 10:53:00,64.0,45.0,-100.00,NW,325,13.0,20.0,49,0.00,,,0.00,,2013-08-09 15:53:00,
2013-08-09 11:11:00,65.0,45.0,-100.00,NW,325,16.0,21.0,47,0.00,,,0.00,,2013-08-09 16:11:00,
2013-08-09 11:22:00,65.0,45.0,-100.00,NNW,330,15.0,23.0,48,0.00,,,0.00,,2013-08-09 16:22:00,
2013-08-09 12:02:00,66.0,46.0,-100.00,NW,320,12.0,21.0,47,0.00,,,0.00,,2013-08-09 17:02:00,
2013-08-09 12:11:00,67.0,46.0,-100.00,WNW,300,16.0,24.0,47,0.00,,,0.00,,2013-08-09 17:11:00,
2013-08-09 12:22:00,66.0,46.0,-100.00,North,350,13.0,22.0,47,0.00,,,0.00,,2013-08-09 17:22:00,
2013-08-09 12:33:00,66.0,46.0,-100.00,NW,325,16.0,22.0,47,0.00,,,0.00,,2013-08-09 17:33:00,
2013-08-09 12:52:00,67.0,46.0,-100.00,NW,305,17.0,22.0,46,0.00,,,0.00,,2013-08-09 17:52:00,
2013-08-09 13:11:00,67.0,46.0,-100.00,NNW,335,13.0,22.0,46,0.00,,,0.00,,2013-08-09 18:11:00,
2013-08-09 13:22:00,68.0,46.0,-100.00,NW,320,13.0,24.0,46,0.00,,,0.00,,2013-08-09 18:22:00,
2013-08-09 13:52:00,69.0,46.0,-100.00,WNW,295,14.0,21.0,45,0.00,,,0.00,,2013-08-09 18:52:00,
2013-08-09 14:02:00,69.0,46.0,-100.00,NW,315,14.0,21.0,44,0.00,,,0.00,,2013-08-09 19:02:00,
2013-08-09 14:11:00,69.0,46.0,-100.00,North,350,12.0,18.0,45,0.00,,,0.00,,2013-08-09 19:11:00,
2013-08-09 14:22:00,68.0,46.0,-100.00,NNW,345,11.0,20.0,46,0.00,,,0.00,,2013-08-09 19:22:00,
2013-08-09 14:32:00,69.0,46.0,-100.00,NNW,330,18.0,25.0,44,0.00,,,0.00,,2013-08-09 19:32:00,
2013-08-09 14:52:00,69.0,46.0,-100.00,North,0,16.0,25.0,45,0.00,,,0.00,,2013-08-09 19:52:00,
2013-08-09 15:02:00,69.0,46.0,-100.00,NW,310,17.0,23.0,43,0.00,,,0.00,,2013-08-09 20:02:00,
2013-08-09 15:11:00,70.0,46.0,-100.00,NW,315,17.0,24.0,43,0.00,,,0.00,,2013-08-09 20:11:00,
2013-08-09 15:22:00,69.0,48.0,-100.00,NNW,335,13.0,22.0,46,0.00,,,0.00,,2013-08-09 20:22:00,
2013-08-09 15:32:00,69.0,48.0,-100.00,North,0,14.0,22.0,46,0.00,,,0.00,,2013-08-09 20:32:00,
2013-08-09 15:52:00,68.0,46.0,-100.00,NNW,330,16.0,20.0,46,0.00,,,0.00,,2013-08-09 20:52:00,
2013-08-09 16:01:00,69.0,46.0,-100.00,NNW,345,13.0,22.0,46,0.00,,,0.00,,2013-08-09 21:01:00,
2013-08-09 16:22:00,69.0,46.0,-100.00,NNW,340,16.0,22.0,45,0.00,,,0.00,,2013-08-09 21:22:00,
2013-08-09 16:52:00,69.0,48.0,-100.00,NW,320,13.0,21.0,45,0.00,,,0.00,,2013-08-09 21:52:00,
2013-08-09 17:11:00,68.0,46.0,-100.00,North,350,13.0,20.0,47,0.00,,,0.00,,2013-08-09 22:11:00,
2013-08-09 17:22:00,69.0,48.0,-100.00,North,355,7.0,20.0,47,0.00,,,0.00,,2013-08-09 22:22:00,
2013-08-09 17:42:00,68.0,48.0,-100.00,NNW,340,9.0,16.0,48,0.00,,,0.00,,2013-08-09 22:42:00,
2013-08-09 17:52:00,67.0,48.0,-100.00,NNW,345,12.0,18.0,48,0.00,,,0.00,,2013-08-09 22:52:00,
2013-08-09 18:01:00,67.0,48.0,-100.00,NW,325,10.0,15.0,49,0.00,,,0.00,,2013-08-09 23:01:00,
2013-08-09 18:11:00,67.0,48.0,-100.00,NNW,340,10.0,14.0,49,0.00,,,0.00,,2013-08-09 23:11:00,
2013-08-09 18:21:00,67.0,48.0,-100.00,NNW,330,9.0,17.0,50,0.00,,,0.00,,2013-08-09 23:21:00,
2013-08-09 18:52:00,67.0,48.0,-100.00,NW,305,6.0,11.0,52,0.00,,,0.00,,2013-08-09 23:52:00,
2013-08-09 19:01:00,67.0,48.0,-100.00,NNW,345,6.0,11.0,51,0.00,,,0.00,,2013-08-10 00:01:00,
2013-08-09 19:11:00,67.0,48.0,-100.00,NNW,330,6.0,11.0,52,0.00,,,0.00,,2013-08-10 00:11:00,
2013-08-09 19:22:00,66.0,48.0,-100.00,North,350,6.0,10.0,53,0.00,,,0.00,,2013-08-10 00:22:00,
2013-08-09 19:52:00,66.0,50.0,-100.00,North,0,6.0,9.0,56,0.00,,,0.00,,2013-08-10 00:52:00,
2013-08-09 20:01:00,66.0,50.0,-100.00,NNW,345,2.0,7.0,57,0.00,,,0.00,,2013-08-10 01:01:00,
2013-08-09 20:11:00,66.0,50.0,-100.00,NNW,330,4.0,8.0,57,0.00,,,0.00,,2013-08-10 01:11:00,
2013-08-09 20:21:00,65.0,50.0,-100.00,North,0,4.0,7.0,58,0.00,,,0.00,,2013-08-10 01:21:00,
2013-08-09 20:32:00,65.0,50.0,-100.00,North,350,4.0,7.0,58,0.00,,,0.00,,2013-08-10 01:32:00,
2013-08-09 21:21:00,63.0,52.0,-100.00,North,0,4.0,6.0,65,0.00,,,0.00,,2013-08-10 02:21:00,
2013-08-09 21:32:00,63.0,52.0,-100.00,North,0,3.0,6.0,66,0.00,,,0.00,,2013-08-10 02:32:00,
2013-08-09 21:52:00,62.0,52.0,-100.00,North,10,3.0,4.0,68,0.00,,,0.00,,2013-08-10 02:52:00,
2013-08-09 22:01:00,63.0,52.0,-100.00,NNE,15,4.0,5.0,68,0.00,,,0.00,,2013-08-10 03:01:00,
2013-08-09 22:11:00,62.0,52.0,-100.00,North,0,4.0,7.0,68,0.00,,,0.00,,2013-08-10 03:11:00,
2013-08-09 22:21:00,63.0,52.0,-100.00,North,350,1.0,6.0,68,0.00,,,0.00,,2013-08-10 03:21:00,
2013-08-09 22:32:00,63.0,54.0,-100.00,NNW,340,1.0,2.0,69,0.00,,,0.00,,2013-08-10 03:32:00,
2013-08-09 22:51:00,63.0,52.0,-100.00,NNE,20,2.0,2.0,68,0.00,,,0.00,,2013-08-10 03:51:00,
2013-08-09 23:12:00,62.0,52.0,-100.00,North,5,4.0,4.0,67,0.00,,,0.00,,2013-08-10 04:12:00,
2013-08-09 23:22:00,62.0,52.0,-100.00,North,5,1.0,4.0,69,0.00,,,0.00,,2013-08-10 04:22:00,